Location: Olmeneta
(45.2333°N, 10.0167°E)
Time: 17:02:29
(UTC+00:00)

Cosmos 1666 - Pass Details

Date: 03 March 2021
Orbit: 497 x 518 km, 82.5° (Epoch: 11 April)

Event Time Altitude Azimuth Distance (km) Brightness Sun altitude
Rises 18:28:10 0° 171° (S) 2,572 6.1 -14.5°
Reaches altitude 10° 18:30:20 10° 165° (SSE) 1,695 5.1 -14.9°
Maximum altitude 18:33:51 42° 93° (E) 723 2.9 -15.5°
Drops below altitude 10° 18:37:24 10° 22° (NNE) 1,714 5.2 -16.2°
Sets 18:39:36 0° 16° (NNE) 2,605 6.2 -16.5°
